{"data":{"norad_id":59890,"intl_designator":"2024-100F","name":"STARLINK-31951","alt_names":[],"object_type":"PAYLOAD","status":"ACTIVE","operator":null,"country":"US","launch_date":"2024-05-28","launch_site_code":"AFETR","launch_vehicle":null,"mission":null,"orbit_class":"UNKNOWN","rcs_meters":null,"size_class":null,"mass_kg":null,"dimensions":null,"purposes":["comms"],"wikipedia_slug":null,"has_3d_model":false,"image_url":null,"decayed_at":null,"tle_current":{"epoch":"2026-05-25T00:34:59.755008Z","epoch_age_seconds":79925,"freshness":"FRESH","line1":"1 59890U 24100F   26145.02430272  .00000724  00000+0  35816-4 0  9995","line2":"2 59890  43.0022  54.0934 0001282 253.4296 106.6415 15.27583311112736","mean_motion":15.27583311,"eccentricity":0.0001282,"inclination_deg":43.0022,"raan_deg":54.0934,"arg_perigee_deg":253.4296,"mean_anomaly_deg":106.6415,"bstar":3.5816e-5,"rev_number":11273,"period_min":94.266544392746,"perigee_km":482.15957894594,"apogee_km":483.91878451893,"semimajor_km":6861.1761817324,"source":"CELESTRAK","updated_at":"2026-05-25T13:38:19.116791Z"}}}